Regional Weather Roundup
Issued by NWS

Home | Current Version | Previous Version | Text Only | Print | Product List | Glossary Off
Versions: 1 2 3 4 5 6 7 8 9 10 11 12 13 14 15 16 17 18 19 20 21 22 23 24 25 26 27 28 29 30 31 32 33 34 35 36 37 38 39 40 41 42 43 44 45 46 47 48 49 50

000
ASUS45 KTFX 281419
RWRMT
MONTANA HOURLY WEATHER ROUNDUP
NATIONAL WEATHER SERVICE GREAT FALLS MT
719 AM MST WED JAN 28 2015

NOTE: "FAIR" INDICATES FEW OR NO CLOUDS BELOW 12000 FEET WITH NO
SIGNIFICANT WEATHER AND/OR OBSTRUCTIONS TO VISIBILITY.

* THESE STATIONS ARE NOT UNDER NWS QUALITY CONTROL. THEY DO NOT
   REPORT WEATHER SUCH AS PRECIPITATION OR FOG.

MTZ001>007-043-281500-
WEST OF THE DIVIDE
CITY           SKY/WX    TMP DP  RH WIND       PRES   REMARKS
KALISPELL      FOG       12  10  92 N3        30.20R
MISSOULA       MOCLDY    27  25  92 CALM      30.23R
BUTTE          PTCLDY    30  27  89 NE3       30.16R
MULLAN PASS    FOG       28  27  96 SW5       30.19R VSB 1/2  WCI  22
* ANACONDA     PTCLDY    37  27  67 W3         N/A
* ESSEX        N/A       25  23  92 N/A        N/A
* EUREKA APT   CLEAR     23  21  92 CALM      30.20R
* HAMILTON APT PTCLDY    39  28  65 E7        30.22R WCI  34
* LIBBY APT    CLEAR     25  23  92 NW3       30.26R VSB 2 1/2
* LINCOLN      N/A       36  24  62 S3G9       N/A
* LOOKOUT PASS N/A       33  31  92 N2         N/A
* POLSON       N/A       35  28  76 SW2        N/A
* SEELEY LAKE  N/A       19  17  92 N2         N/A
* THOMP F APT  PTCLDY    31  30  96 N/A        N/A
* YAAK HILL    N/A       32  30  92 N/A        N/A
$$

MTZ008-052>055-281500-
SOUTHWEST MONTANA
CITY           SKY/WX    TMP DP  RH WIND       PRES   REMARKS
BOZEMAN        CLOUDY    34  32  92 CALM      30.13R
DILLON         CLOUDY    34  30  85 SW7       30.13R WCI  28
* W YELLOWSTON MOCLDY    32  31  96 SW2        N/A
* THREE FORKS  CLOUDY    37  37 100 N/A        N/A
* BOULDER HILL N/A       38  20  48 N4         N/A
* MONIDA PASS  N/A       28  28 100 E2         N/A
* RAYNOLDS PAS N/A       32  14  47 SE6        N/A   WCI  26
* WHITEHALL    N/A       38  27  65 W3G11      N/A
* WISE RIVER   N/A       33  28  82 SW3G10     N/A
$$

MTZ009>010-012-014-046-048-049-054-281500-
EAST SLOPES AND CENTRAL MONTANA
CITY           SKY/WX    TMP DP  RH WIND       PRES   REMARKS
CUT BANK       CLEAR     30  25  82 N12       30.10R WCI  20
GREAT FALLS    PTCLDY    34  25  70 SW8       30.07R WCI  27
HELENA         CLOUDY    43  27  53 W15       30.13R
MALMSTROM AFB  PTCLDY    37  25  62 SW3       30.09R
* CONRAD       CLEAR     37  28  70 NW9        N/A   WCI  30
* DEARBORN     N/A       42  25  51 S5G10      N/A
* EAST GLACIER N/A       37  23  57 NW16G24    N/A   WCI  28
* MONARCH      N/A       37  15  41 W6G11      N/A   WCI  32
* PENDROY      N/A       36  24  62 W13        N/A   WCI  27
* ROGERS PASS  N/A       34  24  67 W1G13      N/A
* SWEET GRASS  N/A       29  29 100 N13        N/A   WCI  19
* WHITE SULPH  N/A       38  22  53 N6G18      N/A   WCI  33
$$

MTZ011-013-016-021-035-040-045-047-050-051-281500-
NORTH CENTRAL MONTANA
CITY           SKY/WX    TMP DP  RH WIND       PRES   REMARKS
HAVRE          FOG       34  30  85 NW14      30.06R WCI  24
LEWISTOWN      PTCLDY    41  27  58 W12       30.04R
* N BAR RANCH  CLEAR     45  23  42 NW20      29.98R
* CHINOOK      CLEAR     34  30  85 SW7       30.06R WCI  28
* CHESTER      N/A       33  28  82 NW9G14     N/A   WCI  25
* DENTON       N/A       41  23  49 W6G12      N/A
* GEYSER       N/A       36  21  54 W12        N/A   WCI  28
* JUDITH GAP   N/A       40  22  49 VRB9G14    N/A   WCI  34
* LOMA         N/A       39  28  65 W8G15      N/A   WCI  33
$$

MTZ017>020-022>027-061-062-281500-
NORTHEAST MONTANA
CITY           SKY/WX    TMP DP  RH WIND       PRES   REMARKS
GLASGOW        PTCLDY    36  30  79 NW15      29.88R WCI  27
GLENDIVE       CLOUDY    45  28  51 W18G24    29.84R
JORDAN         CLOUDY    37  30  76 NW9       29.90R WCI  30
SIDNEY         MOCLDY    43  30  60 NW5       29.82R
WOLF POINT     MOCLDY    37  30  76 W10       29.83R WCI  30
* BEAVER HILL  N/A       41  30  65 W15        N/A
* CIRCLE       N/A       43  32  65 W15        N/A
* LINDSAY DVD  N/A       44  27  51 W23G30     N/A
* NAVAJO       N/A       35  30  82 NW20G28    N/A   WCI  24
* PLENTYWOOD A MOCLDY    32  28  85 NW14G20   29.80R WCI  22
* POPLAR APT   CLOUDY    37  32  82 N/A       29.82R
* SACO         N/A       35  30  82 W10G15     N/A   WCI  27
* SCOBEY APT   PTCLDY    34  28  79 N22G28     N/A   WCI  22
$$

MTZ028>042-056>058-281500-
SOUTHCENTRAL AND SOUTHEAST MONTANA
CITY           SKY/WX    TMP DP  RH WIND       PRES   REMARKS
BAKER          MOCLDY    39  30  70 W16       29.83R WCI  30
BILLINGS       CLOUDY    52  34  50 W15       29.99R
LIVINGSTON     CLOUDY    45  36  71 W16       30.08R
MILES CITY     MOCLDY    43  30  60 NW10      29.89R
* BIG TIMBER A CLOUDY    46  34  63 SW25G31   30.05R
* FORSYTH APT  CLOUDY    45  32  60 W10       29.93R
* LAUREL APT   CLOUDY    46  28  50 W5         N/A
* ROUNDUP APT  MOCLDY    52  21  30 NW17G22    N/A
* ALZADA       N/A       39  31  73 W6         N/A   WCI  35
* HYSHAM       N/A       44  28  53 W4         N/A
* REED POINT   N/A       50  31  48 W7         N/A
* ROSCOE HILL  N/A       43  31  63 W3G9       N/A
$$

REGIONAL REPORTS...DAKOTAS
CITY           SKY/WX    TMP DP  RH WIND       PRES   REMARKS
WILLISTON      PTCLDY    36  32  85 W13       29.76R WCI  27
DICKINSON      MOCLDY    37  30  76 W13       29.74R WCI  29
CROSBY         FOG       28  28 100 NE8       29.79R VSB 1/2  WCI  20
TIOGA          FOG       27  27 100 CALM      29.77S VSB 2
WATFORD CITY   CLEAR     32  32 100 SW7       29.75R WCI  25
BISMARCK       MOCLDY    25  25 100 CALM      29.73S
GRAND FORKS    FOG       34  32  92 S10       29.79F WCI  26
FARGO          FOG       34  30  85 S14G24    29.80S WCI  24
BUFFALO SD     MOCLDY    43  30  60 W9        29.76R
RAPID CITY     PTCLDY    46  28  50 NW12      29.81R
$$

REGIONAL REPORTS...WYOMING/IDAHO/WASHINGTON
CITY           SKY/WX    TMP DP  RH WIND       PRES   REMARKS
GILLETTE       CLOUDY    45  28  51 W10       29.95R
SHERIDAN       LGT RAIN  46  36  68 NW10G26   29.99R
CODY           CLOUDY    45  34  65 W6        30.06R
YELLOWSTONE LA CLOUDY    28  28 100 CALM      30.17R
SALMON         PTCLDY   N/A N/A N/A CALM      30.26R
MULLAN PASS    FOG       28  27  96 SW5       30.19S VSB 1/2  WCI  22
SAND POINT     CLOUDY    34  34 100 SW3       30.29R
SPOKANE        FOG       32  30  92 CALM      30.27R VSB 1/2
$$

REGIONAL REPORTS...ALBERTA
CITY           SKY/WX    TMP DP  RH WIND       PRES   REMARKS
CALGARY        MOCLDY    36  30  79 W5        30.12R WCI  32
LETHBRIDGE     FOG       30  28  92 W7        30.13R WCI  23
MEDICINE HAT   FOG       30  30 100 W9        30.12R WCI  22
EDMONTON       PTCLDY    28  27  96 NW8       30.09R WCI  20
WATERTON GATE  N/A       28  25  89 N1         N/A
CARDSTON       N/A       27  27 100 NW3        N/A
MILK RIVER     N/A       32  30  92 NW9        N/A   WCI  24
$$

REGIONAL REPORTS...SASKATCHEWAN
CITY           SKY/WX    TMP DP  RH WIND       PRES   REMARKS
SWIFT CURRENT  FRZ RAIN  28  27  96 NW23      29.97R VSB M1/4 WCI  14
MOOSE JAW      FOG       27  27 100 NE8       29.93R VSB 3/4  WCI  19
REGINA         LGT SNOW  27  25  92 NE10      29.90R VSB 3    WCI  18
VAL MARIE      N/A       32  30  92 NW25G36    N/A   WCI  19
ASSINIBOIA     N/A       28  27  96 N14        N/A   WCI  17
CORONACH       N/A       28  28 100 NW23G30    N/A   WCI  14

$$




USA.gov is the U.S. government's official web portal to all federal, state and local government web resources and services.